Time,TemperatureF,DewpointF,PressureIn,WindDirection,WindDirectionDegrees,WindSpeedMPH,WindSpeedGustMPH,Humidity,HourlyPrecipIn,Conditions,Clouds,dailyrainin,SoftwareType,DateUTC
2013-01-10 00:02:00,43.1,36.0,30.07,NW,310,4.0,6.0,77,0.00,,,0.00,weatherlink.com 1.10,2013-01-10 08:02:00,
2013-01-10 00:17:00,43.0,36.0,30.07,NW,310,4.0,4.0,77,0.00,,,0.00,weatherlink.com 1.10,2013-01-10 08:17:00,
2013-01-10 00:32:00,43.1,36.0,30.07,NW,310,2.0,6.0,77,0.00,,,0.00,weatherlink.com 1.10,2013-01-10 08:32:00,
2013-01-10 00:47:00,42.9,36.0,30.07,NNW,327,3.0,7.0,75,0.00,,,0.00,weatherlink.com 1.10,2013-01-10 08:47:00,
2013-01-10 01:02:00,42.5,35.0,30.07,NNW,345,5.0,7.0,75,0.00,,,0.00,weatherlink.com 1.10,2013-01-10 09:02:00,
2013-01-10 01:17:00,42.2,35.0,30.08,NW,311,1.0,4.0,76,0.00,,,0.00,weatherlink.com 1.10,2013-01-10 09:17:00,
2013-01-10 01:32:00,42.2,35.0,30.08,NE,44,3.0,5.0,75,0.00,,,0.00,weatherlink.com 1.10,2013-01-10 09:32:00,
2013-01-10 01:47:00,42.0,35.0,30.08,NW,310,0.0,5.0,75,0.00,,,0.00,weatherlink.com 1.10,2013-01-10 09:47:00,
2013-01-10 02:02:00,41.6,35.0,30.08,NW,311,0.0,3.0,76,0.00,,,0.00,weatherlink.com 1.10,2013-01-10 10:02:00,
2013-01-10 02:17:00,41.3,34.0,30.08,NNW,335,2.0,4.0,76,0.00,,,0.00,weatherlink.com 1.10,2013-01-10 10:17:00,
2013-01-10 02:47:00,40.9,34.0,30.08,NE,34,1.0,2.0,77,0.00,,,0.00,weatherlink.com 1.10,2013-01-10 10:47:00,
2013-01-10 03:02:00,40.6,34.0,30.08,ENE,63,0.0,2.0,78,0.00,,,0.00,weatherlink.com 1.10,2013-01-10 11:02:00,
2013-01-10 03:17:00,40.3,34.0,30.08,NE,53,2.0,2.0,78,0.00,,,0.00,weatherlink.com 1.10,2013-01-10 11:17:00,
2013-01-10 03:32:00,39.7,34.0,30.08,NE,46,2.0,3.0,79,0.00,,,0.00,weatherlink.com 1.10,2013-01-10 11:32:00,
2013-01-10 03:48:00,39.3,34.0,30.08,ENE,76,1.0,4.0,80,0.00,,,0.00,weatherlink.com 1.10,2013-01-10 11:48:00,
2013-01-10 04:03:00,40.0,34.0,30.08,NE,34,2.0,4.0,79,0.00,,,0.00,weatherlink.com 1.10,2013-01-10 12:03:00,
2013-01-10 04:18:00,40.1,34.0,30.08,NE,49,2.0,4.0,79,0.00,,,0.00,weatherlink.com 1.10,2013-01-10 12:18:00,
2013-01-10 04:48:00,39.8,34.0,30.07,West,278,0.0,3.0,79,0.00,,,0.00,weatherlink.com 1.10,2013-01-10 12:48:00,
2013-01-10 05:03:00,39.9,34.0,30.07,NNE,31,2.0,4.0,79,0.00,,,0.00,weatherlink.com 1.10,2013-01-10 13:03:00,
2013-01-10 05:18:00,40.1,34.0,30.08,NNW,348,1.0,4.0,80,0.00,,,0.00,weatherlink.com 1.10,2013-01-10 13:18:00,
2013-01-10 05:33:00,39.5,34.0,30.08,NW,315,0.0,1.0,82,0.00,,,0.00,weatherlink.com 1.10,2013-01-10 13:33:00,
2013-01-10 05:48:00,39.2,35.0,30.09,NNW,327,2.0,2.0,84,0.00,,,0.00,weatherlink.com 1.10,2013-01-10 13:48:00,
2013-01-10 06:03:00,39.2,35.0,30.08,NE,44,0.0,5.0,85,0.00,,,0.00,weatherlink.com 1.10,2013-01-10 14:03:00,
2013-01-10 06:18:00,38.8,35.0,30.08,NW,319,2.0,2.0,85,0.00,,,0.00,weatherlink.com 1.10,2013-01-10 14:18:00,
2013-01-10 06:33:00,38.8,35.0,30.09,NNW,331,1.0,3.0,85,0.00,,,0.00,weatherlink.com 1.10,2013-01-10 14:33:00,
2013-01-10 06:48:00,38.8,34.0,30.08,ENE,74,0.0,1.0,84,0.00,,,0.00,weatherlink.com 1.10,2013-01-10 14:48:00,
2013-01-10 07:03:00,39.1,34.0,30.10,NE,46,0.0,4.0,83,0.00,,,0.00,weatherlink.com 1.10,2013-01-10 15:03:00,
2013-01-10 07:18:00,39.5,35.0,30.09,WNW,295,0.0,3.0,83,0.00,,,0.00,weatherlink.com 1.10,2013-01-10 15:18:00,
2013-01-10 07:33:00,39.2,35.0,30.09,NE,44,0.0,1.0,83,0.00,,,0.00,weatherlink.com 1.10,2013-01-10 15:33:00,
2013-01-10 07:48:00,38.7,34.0,30.10,ESE,111,0.0,0.0,84,0.00,,,0.00,weatherlink.com 1.10,2013-01-10 15:48:00,
2013-01-10 08:03:00,38.6,35.0,30.10,NE,41,3.0,3.0,85,0.00,,,0.00,weatherlink.com 1.10,2013-01-10 16:03:00,
2013-01-10 08:18:00,38.9,35.0,30.10,NE,52,0.0,3.0,85,0.00,,,0.00,weatherlink.com 1.10,2013-01-10 16:18:00,
2013-01-10 08:33:00,40.3,36.0,30.11,NNW,342,2.0,3.0,83,0.00,,,0.00,weatherlink.com 1.10,2013-01-10 16:33:00,
2013-01-10 08:48:00,41.0,36.0,30.11,North,351,2.0,4.0,81,0.00,,,0.00,weatherlink.com 1.10,2013-01-10 16:48:00,
2013-01-10 09:02:00,41.6,36.0,30.11,North,357,1.0,7.0,79,0.00,,,0.00,weatherlink.com 1.10,2013-01-10 17:02:00,
2013-01-10 09:18:00,42.2,35.0,30.11,NW,316,7.0,8.0,76,0.00,,,0.00,weatherlink.com 1.10,2013-01-10 17:18:00,
2013-01-10 09:34:00,42.7,36.0,30.12,NW,308,3.0,10.0,76,0.00,,,0.00,weatherlink.com 1.10,2013-01-10 17:34:00,
2013-01-10 09:48:00,42.9,36.0,30.12,NW,310,2.0,12.0,75,0.00,,,0.00,weatherlink.com 1.10,2013-01-10 17:48:00,
2013-01-10 10:02:00,43.4,35.0,30.11,WNW,302,3.0,11.0,73,0.00,,,0.00,weatherlink.com 1.10,2013-01-10 18:02:00,
2013-01-10 10:18:00,43.7,35.0,30.11,NE,56,3.0,13.0,71,0.00,,,0.00,weatherlink.com 1.10,2013-01-10 18:18:00,
2013-01-10 10:33:00,44.3,35.0,30.11,NW,316,6.0,13.0,70,0.00,,,0.00,weatherlink.com 1.10,2013-01-10 18:33:00,
2013-01-10 10:48:00,44.6,35.0,30.11,NW,311,8.0,12.0,69,0.00,,,0.00,weatherlink.com 1.10,2013-01-10 18:48:00,
2013-01-10 11:03:00,45.3,35.0,30.11,WNW,300,5.0,14.0,68,0.00,,,0.00,weatherlink.com 1.10,2013-01-10 19:03:00,
2013-01-10 11:18:00,45.8,35.0,30.11,NNE,25,6.0,13.0,67,0.00,,,0.00,weatherlink.com 1.10,2013-01-10 19:18:00,
2013-01-10 11:48:00,46.0,35.0,30.10,WNW,298,5.0,16.0,66,0.00,,,0.00,weatherlink.com 1.10,2013-01-10 19:48:00,
2013-01-10 12:03:00,46.3,35.0,30.09,NW,324,3.0,14.0,66,0.00,,,0.00,weatherlink.com 1.10,2013-01-10 20:03:00,
2013-01-10 12:18:00,46.8,36.0,30.09,NW,316,7.0,15.0,66,0.00,,,0.00,weatherlink.com 1.10,2013-01-10 20:18:00,
2013-01-10 12:33:00,47.3,36.0,30.08,NNW,328,6.0,12.0,66,0.00,,,0.00,weatherlink.com 1.10,2013-01-10 20:33:00,
2013-01-10 12:47:00,47.5,36.0,30.08,NNW,328,7.0,12.0,64,0.00,,,0.00,weatherlink.com 1.10,2013-01-10 20:47:00,
2013-01-10 13:03:00,48.3,36.0,30.08,NW,319,5.0,10.0,62,0.00,,,0.00,weatherlink.com 1.10,2013-01-10 21:03:00,
2013-01-10 13:18:00,48.7,35.0,30.08,NW,324,3.0,12.0,60,0.00,,,0.00,weatherlink.com 1.10,2013-01-10 21:18:00,
2013-01-10 13:34:00,49.1,35.0,30.07,NW,307,8.0,13.0,58,0.00,,,0.00,weatherlink.com 1.10,2013-01-10 21:34:00,
2013-01-10 13:49:00,49.5,35.0,30.08,NW,318,13.0,17.0,57,0.00,,,0.00,weatherlink.com 1.10,2013-01-10 21:49:00,
2013-01-10 14:04:00,49.4,35.0,30.07,WNW,298,7.0,12.0,57,0.00,,,0.00,weatherlink.com 1.10,2013-01-10 22:04:00,
2013-01-10 14:19:00,50.1,33.0,30.07,NNW,345,6.0,12.0,53,0.00,,,0.00,weatherlink.com 1.10,2013-01-10 22:19:00,
2013-01-10 14:34:00,49.9,34.0,30.08,NW,307,4.0,13.0,54,0.00,,,0.00,weatherlink.com 1.10,2013-01-10 22:34:00,
2013-01-10 14:49:00,50.6,32.0,30.08,NW,319,7.0,12.0,50,0.00,,,0.00,weatherlink.com 1.10,2013-01-10 22:49:00,
2013-01-10 15:04:00,50.0,35.0,30.08,NW,308,10.0,13.0,56,0.00,,,0.00,weatherlink.com 1.10,2013-01-10 23:04:00,
2013-01-10 15:18:00,50.1,34.0,30.08,WNW,302,10.0,13.0,55,0.00,,,0.00,weatherlink.com 1.10,2013-01-10 23:18:00,
2013-01-10 15:34:00,49.7,35.0,30.08,NW,305,8.0,15.0,57,0.00,,,0.00,weatherlink.com 1.10,2013-01-10 23:34:00,
2013-01-10 15:49:00,49.9,35.0,30.08,NW,304,9.0,11.0,57,0.00,,,0.00,weatherlink.com 1.10,2013-01-10 23:49:00,
2013-01-10 16:04:00,50.0,36.0,30.08,NW,309,7.0,12.0,59,0.00,,,0.00,weatherlink.com 1.10,2013-01-11 00:04:00,
2013-01-10 16:19:00,50.1,33.0,30.08,NW,311,5.0,13.0,52,0.00,,,0.00,weatherlink.com 1.10,2013-01-11 00:19:00,
2013-01-10 16:34:00,49.8,33.0,30.09,NW,308,5.0,13.0,52,0.00,,,0.00,weatherlink.com 1.10,2013-01-11 00:34:00,
2013-01-10 16:49:00,49.4,34.0,30.09,NW,322,5.0,8.0,56,0.00,,,0.00,weatherlink.com 1.10,2013-01-11 00:49:00,
2013-01-10 17:04:00,48.1,36.0,30.09,NW,307,2.0,14.0,64,0.00,,,0.00,weatherlink.com 1.10,2013-01-11 01:04:00,
2013-01-10 17:18:00,47.1,37.0,30.09,WNW,302,6.0,10.0,69,0.00,,,0.00,weatherlink.com 1.10,2013-01-11 01:18:00,
2013-01-10 17:34:00,46.3,37.0,30.10,NW,310,1.0,5.0,70,0.00,,,0.00,weatherlink.com 1.10,2013-01-11 01:34:00,
2013-01-10 17:49:00,45.7,37.0,30.11,WNW,302,2.0,5.0,71,0.00,,,0.00,weatherlink.com 1.10,2013-01-11 01:49:00,
2013-01-10 18:04:00,45.1,37.0,30.11,NW,312,2.0,3.0,73,0.00,,,0.00,weatherlink.com 1.10,2013-01-11 02:04:00,
2013-01-10 18:34:00,45.3,36.0,30.12,NW,311,4.0,9.0,69,0.00,,,0.00,weatherlink.com 1.10,2013-01-11 02:34:00,
2013-01-10 18:49:00,45.2,36.0,30.13,NW,315,1.0,7.0,69,0.00,,,0.00,weatherlink.com 1.10,2013-01-11 02:49:00,
2013-01-10 19:19:00,44.7,35.0,30.13,WNW,293,3.0,9.0,70,0.00,,,0.00,weatherlink.com 1.10,2013-01-11 03:19:00,
2013-01-10 19:34:00,44.4,35.0,30.14,NW,316,7.0,11.0,70,0.00,,,0.00,weatherlink.com 1.10,2013-01-11 03:34:00,
2013-01-10 19:49:00,44.2,35.0,30.14,West,278,1.0,8.0,69,0.00,,,0.00,weatherlink.com 1.10,2013-01-11 03:49:00,
2013-01-10 20:04:00,43.7,34.0,30.14,NNE,20,1.0,6.0,69,0.00,,,0.00,weatherlink.com 1.10,2013-01-11 04:04:00,
2013-01-10 20:19:00,43.0,34.0,30.14,NW,321,3.0,5.0,70,0.00,,,0.00,weatherlink.com 1.10,2013-01-11 04:19:00,
2013-01-10 20:34:00,43.2,34.0,30.15,NW,310,4.0,9.0,69,0.00,,,0.00,weatherlink.com 1.10,2013-01-11 04:34:00,
2013-01-10 20:49:00,43.1,34.0,30.16,NW,308,3.0,9.0,69,0.00,,,0.00,weatherlink.com 1.10,2013-01-11 04:49:00,
2013-01-10 21:04:00,43.0,33.0,30.16,North,354,3.0,11.0,68,0.00,,,0.00,weatherlink.com 1.10,2013-01-11 05:04:00,
2013-01-10 21:19:00,42.8,33.0,30.16,NNE,12,2.0,9.0,68,0.00,,,0.00,weatherlink.com 1.10,2013-01-11 05:19:00,
2013-01-10 21:34:00,42.6,33.0,30.16,NNW,327,2.0,8.0,68,0.00,,,0.00,weatherlink.com 1.10,2013-01-11 05:34:00,
2013-01-10 21:49:00,42.3,33.0,30.17,NE,53,2.0,7.0,69,0.00,,,0.00,weatherlink.com 1.10,2013-01-11 05:49:00,
2013-01-10 22:04:00,42.1,33.0,30.17,NE,38,1.0,6.0,70,0.00,,,0.00,weatherlink.com 1.10,2013-01-11 06:04:00,
2013-01-10 22:34:00,42.0,33.0,30.18,WNW,302,2.0,8.0,71,0.00,,,0.00,weatherlink.com 1.10,2013-01-11 06:34:00,
2013-01-10 22:49:00,41.9,33.0,30.18,NNW,348,4.0,6.0,71,0.00,,,0.00,weatherlink.com 1.10,2013-01-11 06:49:00,
2013-01-10 23:04:00,41.8,33.0,30.18,NE,35,3.0,8.0,71,0.00,,,0.00,weatherlink.com 1.10,2013-01-11 07:04:00,
2013-01-10 23:19:00,42.1,33.0,30.18,WNW,299,6.0,9.0,70,0.00,,,0.00,weatherlink.com 1.10,2013-01-11 07:19:00,
2013-01-10 23:34:00,42.1,33.0,30.18,NW,315,5.0,11.0,69,0.00,,,0.00,weatherlink.com 1.10,2013-01-11 07:34:00,
2013-01-10 23:49:00,42.2,33.0,30.18,NW,325,5.0,11.0,70,0.00,,,0.00,weatherlink.com 1.10,2013-01-11 07:49:00,